sat.trackr.live / text

‹ back to catalog

SUPERVIEW NEO-3 01

NORAD 59510 · 2024-072A

PAYLOAD ACTIVE UNKNOWN

§ Identity

Operator
Country
PRC
Launch date
2024-04-15
Launch site
JSC
Launch vehicle
Mass (kg)
RCS (m²)

External: N2YO · Heavens-Above · Gunter

§ Orbital elements

Epoch: 2026-09-22T22:27:25.714656Z

Period
94.61 min
Inclination
97.4081°
Eccentricity
0.0002743
Mean motion
15.22088387 rev/d
Perigee alt
497.7 km
Apogee alt
501.4 km
Semi-major
6,877.7 km
B*
2.3328e-4
RAAN
344.6063°
Arg perigee
111.6745°
Mean anomaly
248.4784°
Rev number
13,557

§ Raw data

SUPERVIEW NEO-3 011 59510U 24072A   26265.93571429  .00005271  00000+0  23328-3 0  99912 59510  97.4081 344.6063 0002743 111.6745 248.4784 15.22088387135570

JSON: /api/v1/satellites/59510 · /tle

For live sub-satellite position, see the globe view (requires WebGL).

§ Visibility from observer

Set your observer location to see the next 7 days of passes ≥ 10°. The values pass through the URL so the page stays shareable.

No JS? Fill the form by hand. The geolocation button needs JavaScript.